Find Starlink 33620

NORAD ID: 63069 Int'l Des: 2025-035 Owner: SPXS Country: US Constellation: starlink operational
LEOCIRCULAR

当前视图

正在加载3D地球...

About Starlink 33620

Starlink 33620 (NORAD 63069) is a starlink constellation satellite (v2 mini) launched Feb 21, 2025 by SPXS of US. It operates in LEO, CIRCULAR orbit with a mass of 575.00 kg.

关于 Starlink 33620

正在加载描述...

即将过境

Passes for default location (London). Set your location on the main map for personalized predictions.

高度历史

Loading altitude history...

两行轨道根数

1 63069U 25035T 26190.66518897 .00016098 00000-0 59329-3 0 9992
2 63069 42.9991 178.2784 0001736 274.0030 86.0623 15.27577438 78379
Epoch: Jul 9, 2026 • Age: 25 hours

当前状态

高度 490.6 km
远地点 / 近地点 N/A
速度 7.62 km/s
星下点 -31.61°S, 50.05°W
发射日期 Feb 21, 2025
运行时间 1.3 years
类型 internet

技术详情

分类 Payload
质量 575.00 kg
干质量 530.00 kg
总质量 575.00 kg
长度 0.30 m
直径 4.10 m
跨度 29.00 m
形状 Box + pan
制造商 SPXS
平台类型 Starlink V2MO
阶段状态 In Orbit
所有者/国家 SPXS/US

Most Searched